Home   Weather   Athens   Past weeks

Flag for Greece Past Weather in Athens, Greece — Yesterday and Last 2 Weeks

Now
54 °F

Clear.


Feels Like: 53 °F
Forecast: 46 / 64 °F
Wind: 5 mph from Southwest

Location: Elefsis Airport

Current Time: Feb 22, 2017 at 7:34:52 pm

Latest Report: Feb 22, 2017 at 6:50 pm


Visibility: 10 mi

Pressure: 30.09 "Hg

Humidity: 67%

Dew Point: 43 °F

Location of AthensLocation

Past Weather in Athens — Graph

°F

Athens Temperature Yesterday

Maximum temperature yesterday: 63 °F (at 1:20 pm)
Minimum temperature yesterday: 43 °F (at 6:20 am)
Average temperature yesterday: 52 °F

High & Low Weather Summary for the Past Weeks

 TemperatureHumidityPressure
High64 °F (Feb 20, 2:50 pm)94% (Feb 8, 1:20 am)30.54 "Hg (Feb 8, 1:20 am)
Low32 °F (Feb 15, 1:20 am)19% (Feb 15, 11:20 am)29.83 "Hg (Feb 7, 6:20 pm)
Average49 °F62%30.23 "Hg
* Reported Feb 7 6:20 pm — Feb 22 6:20 pm, Athens, Weather by CustomWeather, © 2017

Note: Actual official high and low records may vary slightly from our data, if they occured in-between our weather recording intervals... More about our weather records

Advertising

Athens Weather History for the Previous 24 Hours

Scroll right to see more
 ConditionsComfort  
Time TempWeatherWind HumidityBarometerVisibility
6:20 pm
Wed, Feb 22
55 °FClear.5 mph63%30.09 "Hg10 mi
5:50 pm57 °FPassing clouds.6 mph63%30.09 "HgN/A
5:20 pm59 °FPassing clouds.7 mph59%30.07 "HgN/A
4:50 pm61 °FPassing clouds.7 mph52%30.07 "HgN/A
4:20 pm61 °FPassing clouds.8 mph55%30.07 "HgN/A
3:50 pm63 °FPassing clouds.9 mph45%30.07 "HgN/A
3:20 pm63 °FPassing clouds.12 mph39%30.07 "HgN/A
2:50 pm63 °FPassing clouds.12 mph39%30.07 "HgN/A
2:20 pm63 °FPassing clouds.12 mph39%30.07 "HgN/A
1:50 pm63 °FPassing clouds.14 mph42%30.07 "HgN/A
1:20 pm64 °FPassing clouds.14 mph34%30.07 "HgN/A
12:50 pm63 °FPassing clouds.9 mph37%30.09 "HgN/A
12:20 pm63 °FSunny.9 mph42%30.09 "Hg10 mi
11:50 am61 °FSunny.5 mph55%30.09 "Hg10 mi
11:20 am57 °FSunny.5 mph59%30.12 "Hg10 mi
10:50 am57 °FSunny.5 mph59%30.12 "Hg10 mi
10:20 am55 °FPassing clouds.5 mph67%30.12 "HgN/A
9:50 am55 °FPassing clouds.5 mph67%30.09 "HgN/A
9:20 am54 °FPassing clouds.No wind72%30.09 "HgN/A
8:50 am48 °FScattered clouds.No wind82%30.09 "HgN/A
8:20 am45 °FSunny.No wind87%30.09 "Hg10 mi
7:50 am43 °FPartly sunny.5 mph93%30.07 "HgN/A
7:20 am41 °FScattered clouds.5 mph93%30.07 "HgN/A
6:50 am41 °FPassing clouds.No wind87%30.07 "HgN/A
6:20 am41 °FPassing clouds.No wind87%30.07 "HgN/A
5:50 am41 °FPassing clouds.No wind93%30.04 "HgN/A
5:20 am41 °FPassing clouds.No wind93%30.04 "HgN/A
4:50 am43 °FPassing clouds.No wind87%30.04 "HgN/A
4:20 am43 °FPassing clouds.No wind87%30.04 "HgN/A
3:50 am43 °FPassing clouds.No wind87%30.04 "HgN/A
3:20 am43 °FPassing clouds.No wind87%30.04 "HgN/A
2:50 am45 °FPassing clouds.No wind87%30.07 "HgN/A
2:20 am46 °FPassing clouds.No wind82%30.07 "HgN/A
1:50 am46 °FPassing clouds.No wind82%30.07 "HgN/A
1:20 am46 °FPassing clouds.No wind82%30.07 "HgN/A
12:50 am46 °FPassing clouds.5 mph82%30.07 "HgN/A
12:20 am46 °FPassing clouds.No wind82%30.07 "HgN/A
11:50 pm
Tue, Feb 21
48 °FPassing clouds.No wind76%30.07 "HgN/A
11:20 pm48 °FPassing clouds.No wind82%30.04 "HgN/A
10:50 pm46 °FPassing clouds.No wind82%30.04 "HgN/A
10:20 pm46 °FPassing clouds.No wind82%30.07 "HgN/A
9:50 pm46 °FPassing clouds.No wind82%30.04 "HgN/A
9:20 pm48 °FPassing clouds.No wind82%30.04 "HgN/A
8:50 pm50 °FPassing clouds.No wind76%30.04 "HgN/A
8:20 pm52 °FPassing clouds.No wind72%30.04 "HgN/A
7:50 pm55 °FPassing clouds.No wind67%30.04 "HgN/A
7:20 pm55 °FPassing clouds.No wind67%30.01 "HgN/A
Weather by CustomWeather, © 2017

See weather overviewHow to use our weather pages